Regional Weather Roundup
Issued by NWS

Home | Current Version | Previous Version | Text Only | Print | Product List | Glossary Off
Versions: 1 2 3 4 5 6 7 8 9 10 11 12 13 14 15 16 17 18 19 20 21 22 23 24 25 26 27 28 29 30 31 32 33 34 35 36 37 38 39 40 41 42 43 44 45 46 47 48 49 50

953
ASUS45 KCYS 191210
RWRWY

WYOMING REGIONAL WEATHER ROUNDUP
NATIONAL WEATHER SERVICE CHEYENNE WY
600 AM MDT THU OCT 19 2017

NOTE:  "FAIR" INDICATES FEW OR NO CLOUDS BELOW 12,000 FEET
WITH NO SIGNIFICANT WEATHER AND/OR OBSTRUCTIONS TO VISIBILITY.

WYZ001-191300-
YELLOWSTONE NATIONAL PARK

CITY           SKY/WX    TMP DP  RH WIND       PRES   REMARKS
LK YELLOWSTONE   N/A     25  23  92 NW3       30.14R
6HR MIN TEMP:  25; 6HR MAX TEMP:  30;

W YELLOWSTONE  NOT AVBL

$$
WYZ002>013-054>058-071-098>099-191300-
NORTHERN WYOMING

CITY           SKY/WX    TMP DP  RH WIND       PRES   REMARKS
JACKSON        FAIR      24  21  88 N6        30.12R WCI  17
CODY           FAIR      51  22  31 S16       29.95F
GREYBULL       FAIR      35  26  69 SE5       29.92F WCI  31
6HR MIN TEMP:  34; 6HR MAX TEMP:  48;

WORLAND        FAIR      34  27  75 SW5       29.93R WCI  30
6HR MIN TEMP:  31; 6HR MAX TEMP:  46;

SHERIDAN       FAIR      41  29  62 CALM      29.87S
6HR MIN TEMP:  38; 6HR MAX TEMP:  47;

BUFFALO        FAIR      57  18  21 CALM      29.92F
6HR MIN TEMP:  48; 6HR MAX TEMP:  62;

GILLETTE       FAIR      47  21  35 N3        29.90S
6HR MIN TEMP:  47; 6HR MAX TEMP:  57;

HULETT         FAIR      50  21  32 SW6       29.92S
NEWCASTLE      FAIR      43  21  42 E8        29.95S

$$
WYZ014>020-022>026-101>103-191300-
CENTRAL WYOMING

CITY           SKY/WX    TMP DP  RH WIND       PRES   REMARKS
BIG PINEY      FAIR      20  14  77 CALM      30.15S
6HR MIN TEMP:  17; 6HR MAX TEMP:  28;

PINEDALE       FAIR      19  18  93 NW7       30.16F WCI  10
DUBOIS         FAIR      37  19  48 NW17      30.08S WCI  28
LANDER         FAIR      44  17  33 W5        30.01S
6HR MIN TEMP:  36; 6HR MAX TEMP:  52;

RIVERTON       FAIR      41  21  44 SW6       30.02R
6HR MIN TEMP:  38; 6HR MAX TEMP:  51;

CASPER         FAIR      42  17  36 SW13      30.01S
6HR MIN TEMP:  40; 6HR MAX TEMP:  56;

DOUGLAS        FAIR      35  21  56 CALM      30.00R
6HR MIN TEMP:  33; 6HR MAX TEMP:  46;


$$
WYZ021-027>030-104>119-191300-
SOUTHERN WYOMING

CITY           SKY/WX    TMP DP  RH WIND       PRES   REMARKS
EVANSTON       FAIR      44  12  27 SE5       30.13S
6HR MIN TEMP:  39; 6HR MAX TEMP:  47;

FORT BRIDGER     N/A     46   9  22 CALM      30.16S HAZE
ROCK SPRINGS   FAIR      35  10  35 CALM      30.14R
6HR MIN TEMP:  31; 6HR MAX TEMP:  48;

DIXON          FAIR      36  13  38 E5        30.18S WCI  32
RAWLINS        FAIR      32  12  43 E5        30.14S WCI  27
6HR MIN TEMP:  30; 6HR MAX TEMP:  42;

SARATOGA       FAIR      37  14  38 SE12      30.16F WCI  30
LARAMIE        FAIR      31  16  54 SW7       30.16S WCI  24
6HR MIN TEMP:  27; 6HR MAX TEMP:  37;

CHEYENNE       FAIR      43  19  38 W12       30.10S
6HR MIN TEMP:  35; 6HR MAX TEMP:  46;

TORRINGTON     FAIR      36  29  75 E8        30.00S WCI  30
6HR MIN TEMP:  34; 6HR MAX TEMP:  47;

PINE BLUFFS    FAIR      34  25  69 MISG      30.08S

$$




USA.gov is the U.S. government's official web portal to all federal, state and local government web resources and services.